TimeCST,TemperatureF,Dew PointF,Humidity,Sea Level PressureIn,VisibilityMPH,Wind Direction,Wind SpeedMPH,Gust SpeedMPH,PrecipitationIn,Events,Conditions,WindDirDegrees,DateUTC
12:15 AM,30.2,26.6,86,29.94,10.0,North,11.5,-,N/A,,Overcast,350,2013-01-13 06:15:00
12:35 AM,28.4,24.8,86,29.96,10.0,NNW,10.4,-,N/A,,Overcast,340,2013-01-13 06:35:00
12:55 AM,28.4,24.8,86,29.97,10.0,North,9.2,17.3,N/A,,Overcast,350,2013-01-13 06:55:00
1:15 AM,28.4,24.8,86,29.96,10.0,North,13.8,20.7,N/A,,Overcast,350,2013-01-13 07:15:00
1:35 AM,26.6,23.0,86,29.98,10.0,North,10.4,18.4,N/A,,Overcast,350,2013-01-13 07:35:00
2:15 AM,26.6,21.2,80,29.97,10.0,North,15.0,-,N/A,,Overcast,10,2013-01-13 08:15:00
2:35 AM,26.6,21.2,80,29.97,10.0,North,12.7,-,N/A,,Overcast,10,2013-01-13 08:35:00
2:55 AM,26.6,21.2,80,29.98,10.0,North,11.5,16.1,N/A,,Overcast,350,2013-01-13 08:55:00
3:15 AM,26.6,21.2,80,29.98,10.0,North,15.0,18.4,N/A,,Overcast,360,2013-01-13 09:15:00
3:35 AM,24.8,19.4,80,30.01,10.0,North,13.8,19.6,N/A,,Overcast,350,2013-01-13 09:35:00
3:55 AM,24.8,19.4,80,29.99,10.0,North,12.7,-,N/A,,Overcast,360,2013-01-13 09:55:00
4:15 AM,24.8,19.4,80,30.01,10.0,North,12.7,-,N/A,,Overcast,360,2013-01-13 10:15:00
4:35 AM,24.8,19.4,80,30.04,10.0,North,10.4,17.3,N/A,,Overcast,350,2013-01-13 10:35:00
4:55 AM,24.8,19.4,80,30.04,10.0,North,10.4,-,N/A,,Overcast,350,2013-01-13 10:55:00
5:15 AM,24.8,17.6,74,30.04,10.0,North,11.5,-,N/A,,Overcast,360,2013-01-13 11:15:00
5:35 AM,24.8,19.4,80,30.07,10.0,North,6.9,-,N/A,,Overcast,350,2013-01-13 11:35:00
6:15 AM,24.8,17.6,74,30.05,10.0,North,13.8,-,N/A,,Overcast,350,2013-01-13 12:15:00
6:35 AM,24.8,17.6,74,30.06,10.0,North,11.5,17.3,N/A,,Overcast,350,2013-01-13 12:35:00
6:55 AM,24.8,17.6,74,30.05,10.0,North,11.5,-,N/A,,Overcast,350,2013-01-13 12:55:00
7:35 AM,23.0,17.6,80,30.09,10.0,NNW,10.4,-,N/A,,Overcast,340,2013-01-13 13:35:00
7:55 AM,23.0,17.6,80,30.07,10.0,North,11.5,-,N/A,,Overcast,350,2013-01-13 13:55:00
8:15 AM,21.2,17.6,86,30.12,10.0,North,13.8,17.3,N/A,,Overcast,360,2013-01-13 14:15:00
8:35 AM,21.2,15.8,80,30.11,10.0,North,11.5,-,N/A,,Overcast,360,2013-01-13 14:35:00
8:55 AM,21.2,15.8,80,30.12,10.0,North,11.5,-,N/A,,Overcast,350,2013-01-13 14:55:00
9:35 AM,21.2,15.8,80,30.15,10.0,North,12.7,-,N/A,,Overcast,350,2013-01-13 15:35:00
9:55 AM,21.2,15.8,80,30.15,10.0,North,15.0,-,N/A,,Overcast,360,2013-01-13 15:55:00
10:35 AM,23.0,17.6,80,30.18,10.0,North,8.1,-,N/A,,Overcast,350,2013-01-13 16:35:00
10:55 AM,23.0,17.6,80,30.17,10.0,NNW,11.5,-,N/A,,Mostly Cloudy,340,2013-01-13 16:55:00
11:35 AM,23.0,15.8,74,30.16,10.0,NNW,9.2,-,N/A,,Mostly Cloudy,340,2013-01-13 17:35:00
11:55 AM,23.0,17.6,80,30.16,10.0,NNW,10.4,-,N/A,,Overcast,340,2013-01-13 17:55:00
12:15 PM,23.0,17.6,80,30.17,10.0,NW,10.4,-,N/A,,Overcast,320,2013-01-13 18:15:00
12:35 PM,23.0,17.6,80,30.17,10.0,NW,10.4,-,N/A,,Overcast,320,2013-01-13 18:35:00
12:55 PM,23.0,15.8,74,30.18,10.0,NW,11.5,-,N/A,,Overcast,320,2013-01-13 18:55:00
1:35 PM,24.8,17.6,74,30.18,10.0,NNW,11.5,-,N/A,,Overcast,330,2013-01-13 19:35:00
2:15 PM,24.8,15.8,69,30.18,10.0,NNW,10.4,-,N/A,,Overcast,330,2013-01-13 20:15:00
2:35 PM,24.8,17.6,74,30.19,10.0,NNW,8.1,-,N/A,,Overcast,330,2013-01-13 20:35:00
2:55 PM,24.8,15.8,69,30.20,10.0,NW,8.1,-,N/A,,Mostly Cloudy,320,2013-01-13 20:55:00
3:35 PM,24.8,17.6,74,30.22,10.0,North,11.5,-,N/A,,Partly Cloudy,360,2013-01-13 21:35:00
3:55 PM,24.8,17.6,74,30.22,10.0,North,8.1,-,N/A,,Clear,360,2013-01-13 21:55:00
4:15 PM,24.8,17.6,74,30.21,10.0,North,9.2,-,N/A,,Clear,350,2013-01-13 22:15:00
4:35 PM,24.8,17.6,74,30.21,10.0,North,9.2,-,N/A,,Clear,350,2013-01-13 22:35:00
4:55 PM,24.8,17.6,74,30.22,10.0,North,6.9,-,N/A,,Clear,360,2013-01-13 22:55:00
5:35 PM,24.8,15.8,69,30.22,10.0,North,5.8,-,N/A,,Clear,10,2013-01-13 23:35:00
6:15 PM,23.0,17.6,80,30.23,10.0,North,5.8,-,N/A,,Clear,350,2013-01-14 00:15:00
6:35 PM,23.0,17.6,80,30.23,10.0,North,6.9,-,N/A,,Clear,350,2013-01-14 00:35:00
6:55 PM,21.2,17.6,86,30.23,10.0,North,6.9,-,N/A,,Partly Cloudy,10,2013-01-14 00:55:00
7:15 PM,21.2,17.6,86,30.24,10.0,North,6.9,-,N/A,,Scattered Clouds,10,2013-01-14 01:15:00
7:35 PM,21.2,15.8,80,30.25,10.0,North,6.9,-,N/A,,Partly Cloudy,10,2013-01-14 01:35:00
7:55 PM,21.2,15.8,80,30.25,10.0,North,6.9,-,N/A,,Clear,10,2013-01-14 01:55:00
8:15 PM,21.2,15.8,80,30.24,10.0,North,6.9,-,N/A,,Clear,360,2013-01-14 02:15:00
8:35 PM,19.4,15.8,86,30.25,10.0,NNE,6.9,-,N/A,,Clear,20,2013-01-14 02:35:00
8:55 PM,19.4,14.0,80,30.25,10.0,NNE,5.8,-,N/A,,Clear,20,2013-01-14 02:55:00
9:15 PM,19.4,15.8,86,30.26,10.0,NE,5.8,-,N/A,,Clear,40,2013-01-14 03:15:00
10:15 PM,19.4,14.0,80,30.28,10.0,NNE,3.5,-,N/A,,Clear,30,2013-01-14 04:15:00
10:35 PM,19.4,14.0,80,30.29,10.0,NE,3.5,-,N/A,,Clear,40,2013-01-14 04:35:00
10:55 PM,19.4,14.0,80,30.29,10.0,NNE,4.6,-,N/A,,Clear,30,2013-01-14 04:55:00
11:35 PM,17.6,12.2,79,30.30,10.0,NE,5.8,-,N/A,,Clear,40,2013-01-14 05:35:00
11:55 PM,17.6,12.2,79,30.31,10.0,NE,3.5,-,N/A,,Clear,40,2013-01-14 05:55:00